Wind_Speed
16 17 17 18 19 20 20 21 20 21 22 22 24 25 25 26 27 27 27 27 27 27 28 28 28 29 30 31 32 33 35 36 38 38 39 40 40 41 41 42 43 45 47 48
15 16 17 18 19 20 21 21 21 21 22 23 23 25 26 26 26 26 26 27 27 27 28 28 28 29 31 32 33 35 36 37 39 40 41 42 43 43 44 45 47 49 50 52
15 16 17 18 19 19 20 21 21 21 20 22 22 23 26 26 26 26 26 26 27 27 28 29 29 30 31 32 34 36 37 38 39 41 43 44 45 46 47 49 51 52 53 55
15 17 18 19 19 20 20 21 22 22 21 20 22 21 26 27 26 26 26 26 27 27 28 29 30 31 32 33 35 36 38 39 40 42 44 46 47 48 49 52 53 54 56 58
16 16 17 19 20 20 21 21 22 22 22 21 22 22 24 27 26 27 27 27 28 28 29 29 30 32 33 34 35 37 39 40 42 44 45 47 49 50 52 54 55 57 58 60
17 17 18 19 20 21 22 22 23 23 23 22 22 23 24 27 27 28 29 29 29 30 30 31 31 32 34 35 36 38 40 42 44 46 48 50 51 53 55 56 58 60 61 62
17 17 19 20 21 22 23 24 25 25 24 24 24 25 26 29 30 31 31 31 31 31 31 32 33 34 36 37 38 40 42 44 46 48 50 52 53 55 57 58 60 62 63 63
19 19 19 21 23 23 24 25 27 28 28 26 24 24 26 31 33 34 33 32 32 32 34 35 36 37 37 38 40 41 43 45 47 49 50 52 54 56 57 59 61 62 63 64
20 21 21 23 24 25 25 26 27 29 31 31 28 27 28 31 35 36 37 36 34 34 35 36 37 37 39 40 41 43 45 46 48 50 52 53 55 57 58 60 62 63 64 66
22 22 21 23 24 25 26 27 29 30 33 35 33 30 31 34 36 37 39 38 36 35 36 37 38 39 40 42 43 44 46 48 49 51 53 55 56 58 59 61 62 63 64 65
24 24 23 24 24 26 25 27 29 32 33 37 38 34 33 35 36 38 38 38 37 38 39 40 41 42 43 43 45 46 48 49 51 52 54 55 56 58 59 61 62 63 65 66
25 25 25 25 27 28 28 28 30 33 35 36 39 38 34 37 39 39 40 41 41 42 42 43 44 44 45 46 48 49 50 51 53 54 55 57 58 59 60 61 63 64 65 66
26 27 28 27 29 31 30 29 30 33 35 36 37 37 35 38 41 42 43 44 45 45 46 46 47 48 49 50 52 53 53 54 56 56 57 58 59 60 61 62 63 64 64 64
28 28 29 30 30 32 32 31 32 34 36 37 37 39 36 40 42 44 45 46 48 49 49 50 51 52 53 54 55 56 57 58 59 60 60 61 61 62 62 62 62 62 62 62
31 31 31 31 30 31 31 30 31 34 37 41 40 40 41 43 45 46 47 49 51 52 53 54 55 56 57 58 59 60 61 62 62 63 63 63 63 62 61 60 60 60 60 60
32 33 33 30 29 32 31 30 32 35 37 40 42 42 45 48 48 49 51 53 55 56 57 58 60 61 62 62 63 63 64 64 64 64 64 63 62 61 60 59 59 59 59 60
31 32 33 31 31 32 31 32 34 37 39 42 45 46 49 50 52 53 55 57 59 60 61 63 64 65 66 67 67 67 67 66 66 65 64 63 61 60 60 59 59 59 60 60
31 31 33 34 34 35 34 37 40 42 43 46 48 50 52 53 55 57 59 61 63 64 66 67 68 69 69 69 69 69 69 68 66 65 64 62 61 60 60 59 59 60 60 61
29 31 35 37 40 41 39 42 45 48 49 51 53 54 56 58 59 61 63 66 67 69 70 71 72 72 72 71 71 70 69 68 66 65 64 62 61 61 60 60 60 60 60 59
30 33 37 40 44 45 45 48 50 53 55 56 57 59 61 63 65 65 68 70 72 73 73 74 74 74 73 73 72 70 68 66 65 64 63 62 61 60 60 59 59 58 58 58
34 37 39 42 46 49 51 53 54 57 59 61 62 64 67 69 70 72 73 74 75 76 76 76 75 75 73 72 71 69 67 65 64 63 61 60 59 59 58 57 57 57 56 56
38 40 43 47 49 51 54 56 58 61 63 64 66 68 70 72 73 74 75 76 77 77 76 76 75 73 71 70 69 66 65 63 62 61 59 58 58 57 57 56 55 54 54 53
41 43 47 51 53 54 57 60 62 64 66 68 70 71 73 74 76 77 78 78 77 77 75 74 73 71 68 67 66 64 63 61 60 59 58 57 56 56 55 55 53 53 52 52
45 47 51 54 55 57 60 62 64 66 68 70 72 74 75 77 78 78 78 77 76 75 73 71 70 68 65 63 62 62 61 60 58 57 56 55 54 53 53 52 52 51 51 49
48 52 56 57 59 61 63 65 67 69 71 73 74 76 77 78 78 78 77 75 73 72 70 68 67 65 63 61 60 60 59 58 57 55 54 53 52 51 50 50 49 49 48 47
51 56 58 60 62 64 66 68 70 71 72 74 76 77 77 77 76 75 74 72 70 68 66 65 63 62 61 59 58 57 56 56 54 53 51 50 49 49 48 47 46 45 45 45
Wind_Direction
291 292 294 296 298 300 302 303 304 304 305 307 307 305 302 301 301 301 300 298 297 295 292 290 288 285 283 282 280 278 277 276 277 278 279 279 280 281 282 283 283 284 285 287
296 296 298 300 301 303 305 305 305 306 307 308 307 305 304 303 303 302 301 300 299 298 296 294 292 289 287 285 283 281 280 279 280 280 280 281 281 282 283 283 283 284 285 287
303 303 304 304 305 306 308 308 308 308 309 310 308 307 305 304 304 305 304 303 302 301 299 297 295 292 289 287 285 284 283 282 281 281 282 282 282 283 283 283 283 285 286 287
305 306 306 306 307 308 309 309 311 311 312 313 312 312 308 307 309 308 307 306 304 303 301 299 296 294 292 290 288 286 285 284 283 283 283 283 284 284 284 283 284 285 285 286
305 306 306 307 308 309 311 311 312 313 314 314 312 310 309 310 312 310 309 309 307 305 303 301 298 295 293 291 289 288 287 286 285 284 284 284 284 284 284 284 285 285 285 286
305 307 308 309 310 312 312 312 311 311 311 311 314 315 314 313 313 311 311 312 311 309 306 303 300 298 296 294 292 290 289 288 287 286 286 285 285 284 284 285 285 285 285 286
300 304 307 309 310 311 311 312 312 313 315 318 320 319 317 314 313 311 312 313 312 310 307 305 302 300 299 297 295 293 291 290 289 289 288 287 287 286 287 287 287 287 287 287
302 305 307 308 310 312 313 314 314 315 315 315 316 316 315 312 311 310 311 312 312 312 309 307 305 303 302 300 297 296 294 293 292 291 290 289 289 288 288 288 288 288 288 288
302 305 308 309 311 312 313 312 312 312 311 312 314 315 313 312 313 313 314 315 317 314 311 308 306 305 303 301 299 297 296 295 294 293 292 291 290 290 289 289 289 289 289 288
300 303 306 308 308 309 310 312 312 312 313 313 314 318 321 317 315 314 314 316 317 313 311 309 308 306 304 303 301 300 299 297 296 295 294 293 292 292 291 291 291 291 290 290
298 301 304 305 305 306 307 309 310 310 311 312 312 318 322 315 313 312 314 315 315 313 312 311 309 308 306 305 303 302 301 300 299 298 297 296 295 294 294 293 293 292 292 291
298 300 303 305 304 304 306 308 309 309 310 311 311 317 320 314 312 313 315 316 315 314 312 311 310 308 307 305 304 303 302 301 300 299 298 297 296 295 295 294 293 293 292 292
296 300 302 302 303 304 306 309 308 306 307 308 309 314 316 311 310 313 315 315 314 313 312 310 309 308 307 305 304 303 303 302 301 300 299 299 298 297 296 295 294 294 294 293
295 298 300 302 304 303 305 309 309 307 308 307 310 311 312 308 309 312 313 312 311 310 309 309 308 307 306 305 305 304 304 303 302 301 301 300 299 298 297 297 296 295 295 295
294 296 297 299 300 299 302 306 306 305 307 307 310 310 310 308 309 310 310 309 308 308 308 307 306 306 306 305 305 304 304 304 303 302 302 301 300 299 299 298 297 296 296 295
293 295 296 297 298 297 301 304 303 304 305 305 307 308 308 308 308 309 309 308 307 307 307 306 305 305 305 305 305 304 304 304 303 303 302 302 301 300 299 299 298 297 296 296
292 293 293 295 296 297 303 305 304 304 305 305 306 307 307 308 308 308 308 307 307 306 306 305 305 305 305 305 305 304 304 304 303 303 302 301 300 299 299 298 298 297 297 297
294 294 295 297 298 299 305 306 305 304 305 306 306 307 307 307 307 307 306 306 305 305 305 304 304 304 304 304 304 304 304 303 303 302 302 301 300 299 298 298 297 297 297 297
291 293 296 299 300 301 306 306 306 306 307 306 306 306 306 306 305 306 306 305 305 305 304 304 304 304 304 304 304 304 304 303 303 302 301 300 299 299 298 298 298 298 298 298
290 293 296 299 300 303 307 306 305 306 306 306 306 306 306 306 305 305 305 304 304 304 304 304 304 304 304 304 304 304 304 303 302 301 301 300 299 299 298 298 298 299 299 299
293 294 296 298 299 302 304 304 304 305 306 306 306 306 306 306 306 305 305 304 304 304 304 304 304 304 304 304 304 304 304 303 302 302 301 300 299 298 298 299 299 299 300 301
294 295 296 297 299 302 302 303 303 304 304 305 306 305 305 305 304 304 303 303 304 304 304 304 304 305 305 305 304 304 303 303 302 301 301 300 299 299 299 300 300 301 301 302
293 295 296 297 299 301 301 302 303 304 304 304 304 304 303 303 303 303 303 304 304 305 305 305 305 305 305 305 305 304 303 303 302 301 301 300 300 300 301 301 302 302 302 302
294 295 295 296 298 299 300 301 301 302 302 303 303 303 303 304 304 304 304 305 305 305 305 305 305 305 305 305 305 304 304 304 303 303 303 302 302 302 302 303 303 303 303 303
296 295 295 297 299 299 300 301 302 302 303 303 303 304 304 304 304 305 305 305 305 305 305 305 305 305 306 305 306 306 306 306 306 306 305 304 304 304 304 304 304 304 304 305
295 294 296 298 299 300 301 301 301 302 302 303 303 303 304 305 305 305 306 306 306 306 306 306 306 306 306 307 307 307 307 308 308 308 307 306 306 306 306 306 305 305 305 306
Height
5835 5835 5833 5832 5831 5830 5829 5828 5827 5825 5823 5822 5819 5816 5814 5811 5810 5808 5806 5804 5803 5801 5799 5798 5797 5795 5794 5792 5791 5789 5788 5786 5784 5783 5781 5779 5777 5775 5773 5770 5767 5763 5760 5757
5832 5831 5830 5828 5827 5826 5825 5824 5823 5822 5819 5817 5815 5811 5809 5806 5805 5803 5801 5799 5797 5796 5794 5792 5791 5789 5787 5785 5783 5782 5780 5778 5776 5774 5772 5770 5768 5766 5763 5760 5756 5753 5749 5746
5828 5828 5826 5825 5824 5823 5821 5820 5818 5817 5815 5813 5811 5808 5804 5801 5800 5798 5796 5794 5792 5790 5788 5786 5784 5782 5780 5778 5776 5774 5772 5770 5768 5765 5763 5760 5758 5755 5753 5749 5745 5742 5738 5734
5826 5825 5823 5822 5820 5819 5818 5816 5814 5812 5810 5809 5807 5804 5799 5796 5795 5793 5792 5790 5787 5785 5783 5780 5777 5775 5773 5770 5768 5766 5763 5761 5758 5755 5753 5750 5747 5745 5741 5737 5734 5730 5725 5721
5823 5822 5820 5819 5817 5815 5814 5812 5810 5808 5806 5805 5802 5800 5797 5792 5791 5788 5787 5784 5782 5780 5777 5774 5771 5768 5765 5763 5760 5757 5754 5751 5748 5746 5742 5739 5736 5733 5728 5724 5721 5717 5712 5708
5819 5818 5817 5815 5813 5811 5809 5808 5807 5804 5802 5801 5798 5795 5792 5788 5786 5783 5781 5779 5776 5773 5770 5767 5764 5761 5758 5755 5751 5748 5745 5742 5738 5735 5731 5727 5723 5719 5715 5711 5707 5702 5698 5694
5816 5815 5813 5811 5810 5808 5806 5804 5802 5799 5797 5796 5793 5790 5788 5783 5780 5778 5776 5773 5770 5767 5763 5759 5756 5753 5749 5746 5742 5739 5735 5731 5727 5723 5719 5715 5710 5706 5701 5697 5692 5687 5682 5678
5812 5811 5810 5807 5806 5804 5801 5799 5797 5794 5792 5791 5790 5787 5784 5778 5774 5771 5769 5766 5764 5760 5755 5752 5748 5744 5740 5736 5732 5728 5724 5720 5715 5711 5706 5701 5697 5692 5687 5682 5676 5671 5666 5661
5808 5807 5806 5803 5801 5799 5797 5794 5792 5789 5785 5784 5784 5782 5779 5773 5767 5763 5760 5758 5756 5752 5747 5743 5739 5735 5731 5726 5722 5718 5713 5708 5703 5698 5693 5688 5683 5677 5672 5667 5661 5655 5650 5644
5803 5803 5802 5799 5797 5794 5792 5789 5787 5783 5779 5775 5775 5775 5773 5766 5761 5757 5753 5750 5747 5744 5739 5735 5730 5726 5721 5716 5711 5706 5701 5696 5691 5685 5680 5674 5668 5663 5657 5652 5646 5640 5634 5627
5798 5798 5797 5795 5792 5790 5788 5786 5781 5777 5774 5770 5765 5769 5767 5759 5754 5750 5746 5743 5739 5735 5730 5726 5721 5716 5711 5706 5701 5695 5690 5684 5678 5672 5666 5660 5654 5648 5641 5635 5629 5623 5617 5610
5793 5792 5791 5789 5787 5783 5782 5779 5776 5772 5768 5764 5759 5761 5758 5752 5745 5741 5738 5734 5730 5725 5720 5715 5711 5705 5700 5694 5689 5683 5677 5671 5665 5658 5652 5645 5639 5632 5625 5619 5612 5606 5599 5593
5787 5786 5784 5783 5782 5778 5775 5773 5770 5765 5761 5757 5753 5755 5751 5744 5738 5733 5730 5725 5720 5715 5710 5705 5700 5694 5689 5683 5676 5670 5664 5657 5651 5644 5637 5630 5623 5616 5609 5602 5595 5588 5582 5575
5780 5780 5778 5777 5774 5770 5767 5766 5762 5757 5754 5750 5747 5744 5743 5736 5730 5726 5722 5716 5711 5705 5700 5694 5688 5682 5676 5670 5663 5656 5649 5642 5635 5628 5621 5614 5606 5599 5592 5585 5578 5571 5565 5558
5773 5773 5771 5769 5767 5763 5761 5760 5756 5751 5747 5742 5739 5736 5732 5726 5722 5718 5712 5706 5700 5694 5688 5682 5675 5669 5662 5655 5648 5641 5634 5626 5619 5611 5604 5597 5589 5582 5575 5568 5561 5554 5548 5541
5766 5765 5763 5762 5759 5756 5754 5753 5749 5745 5740 5735 5731 5727 5722 5717 5712 5707 5701 5694 5688 5682 5675 5668 5661 5654 5647 5640 5632 5625 5618 5610 5602 5594 5587 5579 5572 5565 5558 5551 5544 5537 5531 5524
5760 5757 5754 5754 5751 5748 5748 5745 5741 5737 5732 5727 5722 5719 5712 5707 5701 5695 5689 5682 5675 5668 5661 5653 5646 5638 5630 5623 5615 5608 5600 5592 5584 5577 5569 5562 5555 5548 5541 5534 5527 5521 5514 5507
5752 5748 5745 5743 5742 5740 5742 5736 5731 5726 5723 5717 5712 5707 5701 5696 5690 5683 5675 5667 5660 5653 5645 5637 5629 5621 5614 5605 5597 5590 5582 5574 5567 5559 5551 5544 5537 5531 5524 5517 5510 5503 5496 5490
5745 5741 5738 5735 5731 5729 5730 5725 5719 5714 5711 5706 5700 5695 5689 5683 5677 5670 5661 5652 5644 5636 5628 5620 5611 5603 5595 5587 5579 5572 5564 5556 5548 5541 5534 5526 5519 5512 5506 5499 5492 5485 5479 5472
5738 5735 5732 5727 5721 5719 5720 5713 5707 5703 5698 5693 5687 5681 5674 5667 5661 5656 5646 5637 5628 5619 5610 5602 5594 5585 5577 5568 5560 5553 5545 5538 5530 5523 5516 5508 5501 5494 5488 5481 5474 5467 5460 5454
5729 5726 5723 5718 5712 5710 5707 5701 5696 5691 5686 5679 5672 5666 5659 5651 5643 5636 5628 5619 5610 5601 5592 5583 5575 5567 5558 5549 5541 5534 5527 5519 5512 5505 5498 5490 5483 5476 5470 5463 5457 5450 5444 5438
5718 5716 5712 5707 5703 5701 5694 5688 5683 5678 5671 5664 5658 5650 5643 5636 5627 5619 5610 5601 5592 5583 5574 5565 5556 5549 5540 5530 5522 5516 5509 5501 5494 5487 5480 5473 5466 5459 5453 5447 5440 5434 5427 5421
5709 5707 5701 5697 5694 5688 5681 5674 5669 5663 5657 5650 5642 5635 5626 5618 5610 5601 5592 5583 5574 5564 5555 5546 5538 5531 5523 5513 5504 5497 5491 5483 5477 5470 5464 5457 5450 5443 5437 5430 5424 5418 5412 5406
5698 5694 5689 5684 5681 5675 5669 5662 5657 5650 5642 5634 5626 5617 5608 5599 5591 5582 5574 5564 5555 5546 5537 5528 5520 5513 5506 5497 5488 5480 5473 5466 5460 5454 5447 5441 5434 5429 5422 5415 5409 5403 5397 5391
5687 5680 5674 5671 5667 5661 5655 5647 5641 5634 5625 5617 5609 5599 5590 5581 5572 5563 5555 5546 5537 5528 5520 5511 5503 5495 5488 5481 5473 5465 5457 5451 5445 5439 5432 5426 5419 5413 5408 5401 5395 5389 5383 5376
5673 5666 5661 5657 5652 5646 5640 5632 5624 5617 5609 5601 5592 5583 5573 5562 5554 5545 5537 5528 5520 5511 5503 5495 5487 5480 5473 5465 5458 5451 5443 5436 5430 5424 5418 5412 5405 5399 5393 5388 5382 5376 5370 5364